Wind_Speed
26 27 24 21 18 16 16 17 19 25 26 23 21 22 19 21 20 19 17 13 9 12 12 9 5 7 4 3 3 3 3 2 4 2 4 6 3 4 4 5 1 1 3 6 10
28 25 28 25 21 19 16 16 17 18 25 24 22 20 21 19 18 22 22 17 14 16 12 6 4 4 3 3 3 4 3 6 6 5 5 4 0 5 2 4 3 6 7 8 11
34 29 24 28 25 22 18 16 16 15 17 23 22 20 17 19 21 26 25 21 19 19 14 10 6 2 3 6 4 5 4 6 18 20 10 4 6 5 4 2 5 2 9 15 16
32 34 28 24 27 25 21 18 16 14 12 19 20 20 16 15 7 4 15 18 18 18 17 9 8 3 2 2 6 4 11 12 19 24 14 5 6 8 5 9 8 10 9 9 18
36 33 34 28 24 27 24 19 17 17 14 15 16 19 19 16 18 6 8 11 13 17 18 16 13 8 5 5 6 7 8 16 20 23 17 13 6 8 14 18 15 16 10 11 14
30 34 33 33 28 25 26 22 20 17 16 14 16 18 21 21 19 22 11 4 10 16 18 15 7 13 5 6 6 6 4 6 7 14 15 11 9 6 7 15 15 15 14 16 19
35 33 34 32 32 27 25 25 21 19 16 15 17 19 24 23 6 19 18 14 12 8 13 14 18 9 4 1 3 2 4 6 4 8 6 12 10 6 20 23 28 27 21 17 20
37 34 32 31 31 31 26 26 24 21 18 15 17 17 12 19 25 14 14 16 13 12 16 16 14 11 3 2 3 3 3 2 3 10 12 6 19 6 10 18 23 29 32 32 30
38 39 34 33 29 30 28 25 25 22 18 15 19 15 10 18 20 21 11 17 13 13 15 12 13 7 4 2 2 1 6 4 6 15 7 8 20 9 19 24 24 23 27 33 34
41 41 37 33 29 29 28 23 23 20 17 15 12 9 18 10 20 26 18 17 15 13 9 11 7 4 5 7 13 6 5 5 9 2 5 10 21 10 24 24 31 33 32 29 32
40 41 38 35 35 27 28 24 16 12 28 11 18 17 9 23 17 21 25 19 15 15 7 12 4 14 14 10 13 2 3 8 6 6 14 13 18 12 21 23 26 32 35 40 40
37 37 39 35 30 32 31 32 26 13 10 29 6 33 8 17 12 18 26 19 12 10 12 4 14 8 4 8 9 11 11 14 9 7 6 10 17 17 19 21 26 31 33 35 40
40 35 35 35 32 30 35 40 25 22 6 21 25 16 33 8 14 25 29 20 8 10 13 11 5 14 7 8 8 11 15 12 8 4 10 10 15 16 15 26 31 38 39 40 42
37 36 34 33 30 33 38 36 28 23 5 6 17 11 20 7 9 19 30 22 6 15 6 8 17 7 11 14 11 15 7 7 9 5 6 7 6 16 9 17 20 29 33 40 42
35 35 35 37 26 42 33 35 32 14 11 17 14 11 20 19 13 18 28 25 10 7 8 12 10 12 12 14 7 10 7 9 9 9 8 7 5 10 3 10 15 15 22 28 36
36 36 38 37 35 36 30 35 32 9 9 8 17 17 17 25 5 22 23 21 9 4 3 16 7 10 11 14 11 5 1 4 2 1 10 16 10 12 10 15 12 15 28 35 35
41 37 40 41 43 29 37 29 11 6 10 11 13 23 27 15 17 8 14 15 11 11 14 6 12 3 3 5 6 5 5 4 5 5 5 9 7 16 16 20 12 19 27 32 32
38 41 41 43 40 32 38 12 17 9 5 3 11 24 22 18 16 12 17 17 18 5 6 12 5 15 6 10 7 7 10 7 8 5 4 2 7 8 17 27 30 35 40 33 40
42 38 42 43 42 40 30 17 15 5 10 7 17 23 14 18 11 14 20 21 15 16 9 8 8 5 8 7 10 5 7 12 12 10 3 5 6 14 14 16 16 20 22 23 25
37 33 33 41 39 41 14 13 8 2 7 11 9 13 12 22 13 17 18 16 5 18 6 4 2 7 8 8 13 15 6 3 3 4 11 7 7 9 9 4 7 8 8 18 26
35 15 25 36 39 32 11 7 4 12 7 17 10 8 7 19 19 19 12 6 16 19 12 4 3 4 9 8 11 4 11 6 3 4 3 6 6 9 9 5 6 11 24 31 22
23 3 21 41 8 5 11 6 7 8 13 12 5 3 15 23 20 18 16 11 25 22 19 5 3 4 6 4 6 17 18 15 8 7 4 3 11 3 11 14 21 14 27 22 28
20 6 28 43 9 5 6 6 3 5 7 4 8 6 9 15 9 13 16 19 19 16 15 10 4 2 7 6 3 5 6 8 5 5 16 9 12 1 10 9 22 21 24 31 34
10 3 10 25 10 5 7 9 6 12 8 10 7 5 13 16 3 13 13 12 21 19 18 23 4 8 10 5 5 5 5 6 8 7 18 15 25 28 15 7 13 25 30 38 41
6 3 5 13 11 11 5 14 19 7 7 20 7 18 16 9 8 9 10 5 9 19 13 11 7 6 1 6 2 4 6 10 14 17 9 19 14 25 13 8 18 29 35 36 30
7 5 5 10 15 13 14 9 16 4 12 7 10 21 18 15 14 15 15 9 12 5 12 3 3 3 1 3 5 9 11 7 6 5 9 9 18 19 23 24 19 21 12 16 24
6 10 4 14 6 6 10 5 22 15 9 6 19 13 15 17 14 22 18 15 11 15 7 8 6 3 4 3 1 8 7 13 12 8 8 11 22 22 11 12 16 18 22 22 26
Wind_Direction
239 238 239 238 239 239 241 235 233 230 230 232 233 231 230 235 251 252 243 235 249 258 264 271 313 32 356 292 268 301 50 260 257 286 308 187 144 168 146 125 198 236 207 205 187
242 240 238 237 236 236 236 235 237 233 227 229 231 235 233 236 248 246 243 235 230 247 254 287 273 336 270 263 245 161 141 226 251 307 333 255 5 163 141 172 208 244 239 225 198
239 239 238 234 234 234 232 234 232 237 232 225 227 230 233 238 250 261 247 238 237 243 253 251 252 273 285 257 244 194 190 267 289 303 345 15 346 338 176 203 216 244 249 235 219
238 235 237 237 231 231 231 227 230 228 232 224 225 224 225 224 222 270 244 241 243 241 235 228 214 190 227 230 261 256 254 272 285 295 330 313 315 325 290 254 278 333 324 250 235
239 235 233 234 233 228 227 224 224 227 226 219 221 210 212 212 218 93 133 193 219 216 219 211 203 203 192 224 282 254 259 260 276 272 302 303 272 274 274 277 277 283 280 252 238
242 239 237 233 230 227 224 221 220 221 220 213 211 205 214 231 232 226 245 253 215 215 201 199 201 213 283 221 226 305 334 311 296 305 307 291 281 284 279 285 283 265 266 257 243
238 238 233 230 227 226 221 216 215 215 215 213 206 210 222 225 218 228 233 238 250 195 201 214 218 210 212 245 315 330 345 339 280 293 288 291 283 239 271 271 266 259 261 248 247
238 235 232 229 225 222 222 213 210 210 211 210 202 212 236 238 218 201 211 217 213 186 199 202 208 213 177 167 23 49 47 276 196 240 259 239 262 253 260 272 269 265 255 255 251
239 233 231 227 223 216 217 212 205 203 203 201 199 206 236 217 218 196 176 212 211 205 202 212 212 220 188 114 297 149 254 237 283 243 258 202 269 266 257 258 269 269 266 256 255
231 225 226 224 219 211 210 207 202 192 191 192 198 197 241 205 219 210 202 197 197 199 185 190 177 179 194 187 223 206 215 234 244 279 269 265 270 259 259 257 271 277 274 273 259
226 222 220 218 216 207 199 188 173 180 190 179 188 194 343 214 198 211 196 198 198 200 181 183 180 216 210 208 243 315 221 250 257 289 262 263 279 294 282 265 260 266 268 268 264
219 217 216 212 208 205 202 197 199 191 178 204 221 208 95 165 182 200 193 188 186 200 187 182 225 212 154 176 208 228 235 254 275 268 336 324 297 290 281 268 259 264 268 269 267
215 212 208 207 205 200 204 205 198 185 158 202 211 216 211 222 211 197 192 190 184 198 188 213 227 194 209 224 214 231 235 243 242 321 294 302 293 278 268 256 263 263 266 263 262
213 214 209 202 200 200 208 205 186 179 192 175 201 233 212 210 222 215 198 185 199 202 175 217 235 214 210 230 208 243 200 210 221 222 263 168 286 274 277 276 275 276 263 260 261
210 211 210 201 193 199 203 198 195 160 224 168 175 184 191 181 147 190 196 193 186 180 169 217 172 197 217 226 170 251 188 228 232 247 256 235 255 283 219 271 268 276 279 275 271
213 210 209 202 204 205 192 195 189 195 222 168 158 171 159 196 197 164 185 201 214 200 239 226 187 176 201 222 202 217 185 238 200 195 239 237 209 262 259 251 263 262 269 281 276
205 207 200 197 196 195 189 174 196 228 152 152 176 173 176 175 194 167 171 183 183 192 214 220 233 273 196 177 186 170 155 251 234 212 256 234 202 242 266 254 259 274 269 274 277
202 200 198 200 195 184 181 187 218 190 192 236 164 174 182 154 197 173 172 194 208 197 177 214 225 202 190 195 174 189 195 220 242 222 269 17 207 245 229 269 265 263 272 273 274
182 184 193 194 194 185 175 206 208 163 147 148 151 176 178 174 149 171 196 202 200 198 172 185 237 197 184 174 150 206 198 233 256 263 287 235 261 288 269 264 256 282 289 282 282
173 176 192 188 189 186 199 194 153 209 133 155 164 181 169 175 167 184 187 199 209 197 194 178 206 206 202 170 208 208 149 227 200 243 250 233 224 232 251 275 311 301 345 348 345
157 151 177 186 181 187 205 197 174 155 160 186 175 174 199 168 182 185 191 186 184 186 179 170 125 275 137 199 187 197 224 220 206 191 255 249 244 225 252 309 320 328 331 336 321
150 138 186 180 179 173 200 168 192 148 207 226 197 125 174 176 183 184 208 196 191 168 198 172 129 205 230 220 187 207 214 212 223 234 239 304 270 237 288 295 314 339 336 330 343
143 119 174 179 191 163 144 161 195 153 187 225 202 179 165 166 166 188 190 202 185 178 179 170 211 80 340 324 244 210 195 196 212 243 248 247 260 185 280 319 319 333 329 321 320
142 137 166 183 208 137 156 176 185 217 210 202 256 151 130 162 152 180 175 177 194 179 170 168 171 202 216 205 173 198 183 204 205 230 248 240 262 276 277 308 318 320 309 303 310
169 158 219 171 193 194 179 176 187 179 198 192 277 172 169 155 155 165 159 145 158 179 167 168 193 196 190 302 112 200 227 222 217 239 235 264 258 270 288 293 293 288 290 293 316
142 106 341 139 137 177 179 189 183 163 176 185 237 170 166 167 181 169 167 156 168 135 175 178 165 123 35 197 259 275 257 207 228 242 254 272 269 274 283 279 282 289 19 31 356
165 182 353 158 161 170 192 180 206 182 230 198 214 171 189 192 169 174 152 149 168 168 151 150 125 115 242 242 91 298 223 226 239 215 228 245 258 280 357 359 26 39 32 10 357
Height
1495 1499 1503 1505 1507 1510 1511 1514 1516 1520 1524 1527 1531 1533 1535 1538 1540 1541 1541 1546 1547 1549 1551 1553 1554 1554 1555 1556 1557 1558 1566 1569 1561 1556 1554 1550 1548 1549 1549 1551 1554 1555 1554 1553 1553
1490 1493 1498 1501 1504 1507 1509 1511 1514 1516 1520 1524 1527 1530 1533 1535 1537 1536 1540 1542 1545 1548 1550 1552 1553 1553 1554 1555 1556 1557 1566 1561 1553 1553 1554 1552 1550 1550 1552 1551 1553 1554 1554 1553 1553
1483 1488 1492 1496 1500 1503 1506 1509 1511 1514 1517 1520 1524 1527 1531 1533 1534 1528 1535 1538 1542 1545 1548 1550 1552 1553 1554 1554 1554 1554 1560 1554 1552 1552 1554 1554 1553 1552 1551 1553 1551 1553 1554 1553 1554
1477 1481 1486 1491 1495 1499 1502 1506 1509 1512 1515 1518 1521 1525 1529 1532 1536 1526 1528 1534 1539 1541 1545 1547 1550 1552 1553 1553 1552 1554 1552 1552 1552 1551 1552 1551 1552 1553 1552 1551 1552 1551 1550 1551 1552
1470 1475 1481 1486 1490 1495 1498 1502 1506 1509 1512 1516 1518 1523 1526 1527 1527 1527 1527 1531 1535 1538 1541 1544 1547 1549 1551 1550 1550 1550 1550 1550 1551 1550 1550 1550 1549 1549 1549 1550 1550 1549 1548 1547 1549
1464 1469 1475 1480 1485 1490 1494 1498 1503 1506 1510 1513 1516 1520 1522 1521 1523 1526 1528 1531 1533 1535 1539 1542 1543 1547 1547 1547 1550 1548 1548 1548 1548 1548 1549 1550 1547 1548 1546 1547 1546 1546 1545 1543 1543
1458 1463 1468 1474 1480 1485 1489 1495 1499 1504 1507 1510 1514 1516 1516 1514 1521 1523 1526 1530 1532 1535 1538 1540 1542 1544 1545 1546 1546 1545 1547 1546 1547 1548 1548 1549 1545 1543 1544 1544 1542 1542 1541 1541 1540
1451 1457 1462 1468 1474 1480 1485 1490 1495 1500 1505 1508 1512 1514 1510 1512 1518 1520 1524 1528 1532 1533 1536 1539 1542 1544 1544 1545 1544 1546 1549 1554 1544 1546 1547 1549 1539 1538 1540 1539 1536 1535 1536 1535 1535
1443 1450 1456 1462 1468 1474 1481 1487 1491 1497 1502 1506 1509 1512 1509 1508 1510 1518 1521 1526 1529 1532 1534 1538 1540 1542 1543 1545 1549 1550 1553 1552 1548 1544 1546 1547 1533 1533 1533 1533 1531 1530 1531 1529 1527
1435 1443 1450 1457 1463 1469 1477 1484 1489 1495 1500 1504 1507 1515 1504 1503 1508 1514 1520 1523 1527 1531 1534 1536 1539 1539 1539 1541 1543 1547 1550 1548 1545 1543 1542 1542 1531 1530 1530 1530 1527 1525 1523 1523 1521
1427 1435 1443 1451 1458 1465 1473 1479 1485 1492 1491 1490 1494 1494 1494 1500 1506 1509 1515 1521 1525 1528 1531 1533 1537 1531 1532 1536 1540 1541 1542 1542 1539 1542 1543 1539 1531 1528 1525 1524 1522 1518 1515 1515 1514
1419 1427 1436 1444 1452 1460 1467 1468 1472 1474 1487 1491 1493 1496 1496 1500 1504 1507 1513 1518 1522 1523 1527 1532 1527 1529 1532 1534 1540 1541 1543 1538 1538 1540 1542 1539 1532 1525 1523 1518 1515 1512 1508 1509 1507
1412 1420 1429 1438 1448 1456 1458 1463 1471 1475 1483 1486 1490 1492 1495 1500 1500 1502 1508 1512 1517 1520 1520 1523 1522 1528 1530 1533 1537 1537 1537 1537 1541 1540 1538 1541 1535 1521 1512 1508 1507 1502 1503 1500 1498
1404 1414 1423 1434 1445 1447 1450 1460 1467 1470 1481 1479 1485 1486 1491 1496 1498 1499 1503 1508 1513 1514 1520 1523 1518 1525 1527 1529 1531 1536 1532 1535 1538 1544 1542 1538 1533 1515 1512 1505 1499 1499 1497 1493 1491
1397 1407 1417 1426 1430 1437 1445 1457 1467 1471 1463 1467 1474 1480 1483 1489 1487 1491 1498 1504 1507 1510 1516 1510 1514 1519 1524 1519 1527 1529 1529 1531 1533 1534 1536 1536 1538 1509 1506 1502 1495 1493 1489 1484 1481
1390 1401 1411 1419 1428 1435 1445 1455 1464 1468 1444 1455 1459 1466 1477 1481 1484 1487 1494 1502 1505 1510 1511 1506 1508 1512 1513 1516 1522 1524 1526 1528 1530 1534 1530 1523 1532 1512 1504 1494 1488 1484 1480 1475 1475
1383 1395 1405 1413 1418 1431 1441 1450 1453 1441 1442 1450 1451 1455 1460 1471 1482 1483 1488 1495 1498 1508 1507 1507 1507 1505 1507 1514 1518 1524 1530 1534 1533 1531 1518 1509 1524 1505 1491 1480 1480 1473 1472 1470 1469
1375 1391 1398 1406 1418 1428 1436 1444 1432 1430 1436 1440 1443 1455 1456 1465 1477 1480 1485 1488 1491 1494 1500 1508 1518 1503 1500 1504 1511 1519 1522 1523 1527 1521 1521 1515 1515 1495 1481 1473 1472 1471 1465 1464 1463
1375 1384 1392 1401 1412 1421 1427 1422 1422 1427 1430 1438 1442 1452 1455 1460 1467 1475 1477 1480 1481 1484 1493 1502 1502 1492 1492 1496 1504 1511 1517 1511 1520 1519 1530 1512 1499 1483 1474 1469 1466 1465 1464 1462 1459
1369 1381 1387 1396 1408 1417 1420 1414 1420 1422 1422 1432 1436 1443 1445 1452 1459 1467 1475 1470 1476 1478 1482 1487 1496 1486 1487 1493 1495 1497 1503 1517 1520 1528 1513 1505 1501 1486 1469 1466 1465 1464 1466 1464 1459
1369 1379 1385 1394 1403 1409 1405 1411 1416 1419 1423 1427 1433 1437 1439 1441 1447 1457 1466 1465 1467 1473 1480 1484 1488 1488 1486 1488 1491 1502 1503 1506 1507 1513 1504 1498 1493 1465 1465 1467 1465 1466 1467 1463 1459
1367 1378 1382 1390 1394 1397 1402 1406 1409 1414 1425 1427 1423 1424 1428 1434 1444 1452 1455 1456 1458 1466 1475 1481 1487 1498 1489 1481 1483 1486 1489 1496 1505 1509 1511 1500 1484 1462 1461 1463 1464 1465 1466 1463 1462
1365 1374 1381 1385 1387 1391 1401 1406 1410 1413 1422 1425 1420 1418 1422 1432 1445 1446 1450 1453 1456 1463 1468 1474 1485 1513 1502 1490 1480 1483 1484 1486 1490 1496 1495 1501 1481 1454 1461 1464 1465 1467 1463 1460 1457
1366 1376 1377 1383 1388 1390 1395 1404 1411 1412 1414 1421 1417 1414 1419 1428 1428 1441 1444 1450 1453 1458 1463 1468 1476 1476 1477 1484 1475 1481 1481 1482 1487 1493 1479 1486 1471 1451 1463 1468 1467 1462 1458 1455 1453
1360 1365 1368 1374 1386 1388 1394 1396 1402 1409 1413 1413 1417 1406 1410 1423 1430 1433 1441 1448 1450 1454 1458 1464 1479 1475 1475 1473 1475 1475 1475 1479 1481 1474 1486 1466 1474 1448 1462 1464 1462 1462 1459 1455 1455
1357 1360 1354 1369 1382 1385 1388 1394 1396 1404 1404 1410 1414 1399 1404 1411 1408 1423 1427 1438 1442 1451 1455 1463 1476 1475 1487 1474 1474 1474 1471 1476 1476 1478 1478 1476 1470 1454 1456 1457 1458 1458 1458 1457 1454
1357 1362 1367 1374 1381 1387 1384 1386 1389 1397 1404 1399 1408 1403 1406 1403 1409 1414 1421 1431 1436 1438 1449 1458 1472 1482 1500 1477 1478 1489 1469 1467 1465 1467 1468 1473 1453 1447 1458 1459 1459 1457 1456 1455 1451